STARLINK-34574, 64714

Orbit data source: Space-Track

STARLINK-34574, 64714 is a payload satellite owned by SpaceX/Seattle (US) in LEO that was launched on Sat, 28 Jun 2025 UTC via an FALCON 9 launch vehicle from the Air Force Western Test Range (AFWTR). Payload-class satellites include a variety of spacecraft equipped with specific instruments for various scientific and technological missions. These include communications satellites like Starlink; space stations such as the ISS; scientific satellites like the Hubble; Earth observation satellites from companies like Planet Labs, Umbra, and HawkEye 360; GPS; miniature CubeSats for education and research; and military/defense satellites.

Loading next visibility...
Identifier
64714, 2025-142U
Orbit
LEO
Country
Flag of USUS
Related business
Manufacturer
SpaceX/Seattle
Mission
Operational Commercial Communications
Bus & Motor
STARLINK V2MO, Unknown motor
Mass
575 kg wet, ~530 kg dry
Launch date (UTC)
2025-06-28 (1 year ago)
Launch vehicle
FALCON 9
Launch site
Air Force Western Test Range (AFWTR)
Object type
Payload
Rocket body
Debris
Shape & HBR
Box + 1 Pan, 17.7 m
Radar Cross Section
41.120 m², Large (>1 m²)

Expand to show TLE details & history
Last TLE update: 13 hours ago

TLE from 13 hours ago
0 STARLINK-34574
1 64714U 25142U   26264.17225086  .00019434  00000-0  67807-3 0  9999
2 64714  70.0004 179.1236 0002957 268.6214  91.4622 15.29612533 68832
Epoch: 2026-09-21T04:08Z
TLE epoch observation values (Epoch: 2026-09-21T04:08:02.474Z)
Latitude
-0.00005°
Longitude
117.05738°
Altitude
479.48 km
Speed
7.626 km/s
True Right ascension
11h 56m 29s
True Declination
0° 00' 00"
Sunlit
Object was in daylight at epoch
Visualization orbit readout
Latitude
Unknown
Longitude
Unknown
Altitude
Unknown
Speed
Unknown
Apparent Right ascension
Unknown
Apparent Declination
Unknown
Sunlit
N/A
Visualization observer readout
Local Sidereal Time
09:57:36
Azimuth
Unknown
Elevation
Unknown
Doppler factor
Unknown
Orbital elements
Apogee altitude
476.916 km
Perigee altitude
472.863 km
Semi-major axis
6,853.026 km
Eccentricity
0.0003
Inclination
70.0004°
RAAN
179.1236°
Arg. of periapsis
268.6214°
True anomaly
91.49607°
Mean anomaly
91.4622°
Eccentric anomaly
91.47914°
Mean motion
3.82578 °/min
Orbital period
94.1 mins
BSTAR
0.00067807
Loading maneuver chart data...
Computing Atmospheric mass density...
Loading historical data...
Loading historical data...
Loading historical data...
Loading historical data...
Loading historical data...
Loading historical data...
Loading historical data...

Documentation

Showing up to 5 results
|